User: anonymous   Login
Location: Bittkow
(50.3000°N, 19.0000°E)
Time: 19:00:41
(UTC+00:00)
Language:

Cosmos 2278 - Orbit

View from above orbital plane
View from above orbital plane
View from above satellite
View from above satellite

Ground track
Ground track

The orbit data is extracted from the following two-line orbital elements,

1 23087U 94023A   20330.91665727 -.00000251 +00000-0 -10746-3 0  9990
2 23087 071.0534 250.1647 0006395 098.2259 261.9589 14.13811041372012
Epoch (UTC): 25 November 2020 21:59:59
Eccentricity: 0.0006395
inclination: 71.0534°
perigee height: 842 km
apogee height: 851 km
right ascension of ascending node: 250.1647°
argument of perigee: 98.2259°
revolutions per day: 14.13811041
mean anomaly at epoch: 261.9589°
orbit number at epoch: 37201

The dashed part of the orbit path shows where the satellite is in the earth's shadow,  

DLR